Time,TemperatureF,DewpointF,PressureIn,WindDirection,WindDirectionDegrees,WindSpeedMPH,WindSpeedGustMPH,Humidity,HourlyPrecipIn,Conditions,Clouds,dailyrainin,SoftwareType,DateUTC
2013-07-29 00:02:00,53.2,43.7,30.07,NE,53,0.0,0.0,70,0.00,,---,0.00,VWS V13.01,2013-07-29 05:02:00,
2013-07-29 00:08:00,52.9,43.4,30.07,NE,53,0.0,0.0,70,0.00,,---,0.00,VWS V13.01,2013-07-29 05:08:00,
2013-07-29 00:13:00,52.7,43.6,30.07,NE,53,0.0,0.0,71,0.00,,---,0.00,VWS V13.01,2013-07-29 05:13:00,
2013-07-29 00:18:00,52.5,43.4,30.07,NE,54,0.0,0.0,71,0.00,,---,0.00,VWS V13.01,2013-07-29 05:18:00,
2013-07-29 00:23:00,52.3,43.2,30.07,NE,53,0.0,0.0,71,0.00,,---,0.00,VWS V13.01,2013-07-29 05:23:00,
2013-07-29 00:28:00,52.2,43.4,30.07,NE,54,0.0,0.0,72,0.00,,---,0.00,VWS V13.01,2013-07-29 05:28:00,
2013-07-29 00:33:00,52.0,43.2,30.07,NE,53,0.0,0.0,72,0.00,,---,0.00,VWS V13.01,2013-07-29 05:33:00,
2013-07-29 00:38:00,52.0,43.2,30.07,NE,53,0.0,0.0,72,0.00,,---,0.00,VWS V13.01,2013-07-29 05:38:00,
2013-07-29 00:43:00,51.8,43.4,30.07,NE,53,0.0,0.0,73,0.00,,---,0.00,VWS V13.01,2013-07-29 05:43:00,
2013-07-29 00:48:00,51.6,43.3,30.07,NE,53,0.0,0.0,73,0.00,,---,0.00,VWS V13.01,2013-07-29 05:48:00,
2013-07-29 00:53:00,51.4,43.1,30.07,NE,53,0.0,0.0,73,0.00,,---,0.00,VWS V13.01,2013-07-29 05:53:00,
2013-07-29 00:58:00,51.4,43.4,30.07,NE,53,0.0,0.0,74,0.00,,---,0.00,VWS V13.01,2013-07-29 05:58:00,
2013-07-29 01:03:00,51.6,43.6,30.07,NE,53,0.0,0.0,74,0.00,,---,0.00,VWS V13.01,2013-07-29 06:03:00,
2013-07-29 01:09:00,51.6,43.6,30.07,NE,53,0.0,0.0,74,0.00,,---,0.00,VWS V13.01,2013-07-29 06:09:00,
2013-07-29 01:14:00,51.6,43.6,30.07,NE,53,0.0,0.0,74,0.00,,---,0.00,VWS V13.01,2013-07-29 06:14:00,
2013-07-29 01:19:00,51.6,44.0,30.07,NE,54,0.0,0.0,75,0.00,,---,0.00,VWS V13.01,2013-07-29 06:19:00,
2013-07-29 01:24:00,51.6,44.0,30.07,NE,53,0.0,0.0,75,0.00,,---,0.00,VWS V13.01,2013-07-29 06:24:00,
2013-07-29 01:29:00,51.6,44.0,30.07,NE,53,0.0,0.0,75,0.00,,---,0.00,VWS V13.01,2013-07-29 06:29:00,
2013-07-29 01:34:00,51.6,44.0,30.07,NE,53,0.0,0.0,75,0.00,,---,0.00,VWS V13.01,2013-07-29 06:34:00,
2013-07-29 01:39:00,51.3,43.6,30.07,NE,53,0.0,0.0,75,0.00,,---,0.00,VWS V13.01,2013-07-29 06:39:00,
2013-07-29 01:44:00,51.1,43.1,30.07,NE,53,0.0,0.0,74,0.00,,---,0.00,VWS V13.01,2013-07-29 06:44:00,
2013-07-29 01:49:00,51.1,43.1,30.07,NE,53,0.0,0.0,74,0.00,,---,0.00,VWS V13.01,2013-07-29 06:49:00,
2013-07-29 01:54:00,50.9,42.9,30.07,NE,53,0.0,0.0,74,0.00,,---,0.00,VWS V13.01,2013-07-29 06:54:00,
2013-07-29 01:59:00,50.5,42.6,30.07,NE,54,0.0,0.0,74,0.00,,---,0.00,VWS V13.01,2013-07-29 06:59:00,
2013-07-29 02:04:00,50.4,42.4,30.07,NE,53,0.0,0.0,74,0.00,,---,0.00,VWS V13.01,2013-07-29 07:04:00,
2013-07-29 02:09:00,50.2,42.2,30.07,NE,53,0.0,0.0,74,0.00,,---,0.00,VWS V13.01,2013-07-29 07:09:00,
2013-07-29 02:15:00,50.2,42.2,30.07,NE,53,0.0,0.0,74,0.00,,---,0.00,VWS V13.01,2013-07-29 07:15:00,
2013-07-29 02:20:00,50.2,42.2,30.07,NE,53,0.0,0.0,74,0.00,,---,0.00,VWS V13.01,2013-07-29 07:20:00,
2013-07-29 02:25:00,50.2,42.2,30.07,NE,53,0.0,0.0,74,0.00,,---,0.00,VWS V13.01,2013-07-29 07:25:00,
2013-07-29 02:30:00,50.2,42.2,30.07,NE,53,0.0,0.0,74,0.00,,---,0.00,VWS V13.01,2013-07-29 07:30:00,
2013-07-29 02:35:00,50.2,42.2,30.07,NE,53,0.0,0.0,74,0.00,,---,0.00,VWS V13.01,2013-07-29 07:35:00,
2013-07-29 02:40:00,50.2,42.2,30.07,NE,53,0.0,0.0,74,0.00,,---,0.00,VWS V13.01,2013-07-29 07:40:00,
2013-07-29 02:45:00,50.4,42.4,30.10,NE,53,0.0,0.0,74,0.00,,---,0.00,VWS V13.01,2013-07-29 07:45:00,
2013-07-29 02:50:00,50.7,42.8,30.10,NE,53,0.0,0.0,74,0.00,,---,0.00,VWS V13.01,2013-07-29 07:50:00,
2013-07-29 02:55:00,50.9,42.9,30.10,NE,53,0.0,0.0,74,0.00,,---,0.00,VWS V13.01,2013-07-29 07:55:00,
2013-07-29 03:00:00,50.9,42.9,30.10,NE,53,0.0,0.0,74,0.00,,---,0.00,VWS V13.01,2013-07-29 08:00:00,
2013-07-29 03:05:00,50.9,42.9,30.10,NE,53,0.0,0.0,74,0.00,,---,0.00,VWS V13.01,2013-07-29 08:05:00,
2013-07-29 03:10:00,50.7,42.4,30.10,NE,53,0.0,0.0,73,0.00,,---,0.00,VWS V13.01,2013-07-29 08:10:00,
2013-07-29 03:15:00,50.5,42.2,30.10,NE,53,0.0,0.0,73,0.00,,---,0.00,VWS V13.01,2013-07-29 08:15:00,
2013-07-29 03:21:00,50.4,42.0,30.10,NE,53,0.0,0.0,73,0.00,,---,0.00,VWS V13.01,2013-07-29 08:21:00,
2013-07-29 03:26:00,50.4,42.0,30.10,NE,53,0.0,0.0,73,0.00,,---,0.00,VWS V13.01,2013-07-29 08:26:00,
2013-07-29 03:31:00,50.7,42.8,30.07,NE,53,0.0,0.0,74,0.00,,---,0.00,VWS V13.01,2013-07-29 08:31:00,
2013-07-29 03:36:00,51.1,43.1,30.07,NE,53,0.0,0.0,74,0.00,,---,0.00,VWS V13.01,2013-07-29 08:36:00,
2013-07-29 03:41:00,51.4,43.4,30.07,NE,53,0.0,0.0,74,0.00,,---,0.00,VWS V13.01,2013-07-29 08:41:00,
2013-07-29 03:46:00,51.8,43.8,30.07,NE,53,0.0,0.0,74,0.00,,---,0.00,VWS V13.01,2013-07-29 08:46:00,
2013-07-29 03:51:00,52.0,43.6,30.07,NE,53,0.0,0.0,73,0.00,,---,0.00,VWS V13.01,2013-07-29 08:51:00,
2013-07-29 03:56:00,51.8,43.4,30.07,NE,53,0.0,0.0,73,0.00,,---,0.00,VWS V13.01,2013-07-29 08:56:00,
2013-07-29 04:01:00,51.6,43.3,30.07,NE,53,0.0,0.0,73,0.00,,---,0.00,VWS V13.01,2013-07-29 09:01:00,
2013-07-29 04:06:00,51.4,43.1,30.07,NE,53,0.0,0.0,73,0.00,,---,0.00,VWS V13.01,2013-07-29 09:06:00,
2013-07-29 04:11:00,51.3,42.9,30.07,NE,53,0.0,0.0,73,0.00,,---,0.00,VWS V13.01,2013-07-29 09:11:00,
2013-07-29 04:16:00,51.1,42.7,30.10,NE,53,0.0,0.0,73,0.00,,---,0.00,VWS V13.01,2013-07-29 09:16:00,
2013-07-29 04:21:00,50.9,42.6,30.10,NE,53,0.0,0.0,73,0.00,,---,0.00,VWS V13.01,2013-07-29 09:21:00,
2013-07-29 04:26:00,50.9,42.6,30.10,NE,53,0.0,0.0,73,0.00,,---,0.00,VWS V13.01,2013-07-29 09:26:00,
2013-07-29 04:31:00,50.9,42.6,30.10,NE,53,0.0,0.0,73,0.00,,---,0.00,VWS V13.01,2013-07-29 09:31:00,
2013-07-29 04:36:00,51.1,43.1,30.10,NE,53,0.0,0.0,74,0.00,,---,0.00,VWS V13.01,2013-07-29 09:36:00,
2013-07-29 04:42:00,51.3,43.3,30.10,NE,53,0.0,0.0,74,0.00,,---,0.00,VWS V13.01,2013-07-29 09:42:00,
2013-07-29 04:47:00,51.3,43.3,30.10,NE,53,0.0,0.0,74,0.00,,---,0.00,VWS V13.01,2013-07-29 09:47:00,
2013-07-29 04:52:00,51.4,43.4,30.10,NE,53,0.0,0.0,74,0.00,,---,0.00,VWS V13.01,2013-07-29 09:52:00,
2013-07-29 04:57:00,51.4,43.8,30.10,NE,53,0.0,0.0,75,0.00,,---,0.00,VWS V13.01,2013-07-29 09:57:00,
2013-07-29 05:02:00,51.6,44.0,30.10,NE,53,0.0,0.0,75,0.00,,---,0.00,VWS V13.01,2013-07-29 10:02:00,
2013-07-29 05:07:00,51.8,43.8,30.10,NE,53,0.0,0.0,74,0.00,,---,0.00,VWS V13.01,2013-07-29 10:07:00,
2013-07-29 05:13:00,51.4,43.4,30.10,NE,53,0.0,0.0,74,0.00,,---,0.00,VWS V13.01,2013-07-29 10:13:00,
2013-07-29 05:18:00,51.1,43.1,30.10,NE,53,0.0,0.0,74,0.00,,---,0.00,VWS V13.01,2013-07-29 10:18:00,
2013-07-29 05:23:00,50.5,42.6,30.10,NE,53,0.0,0.0,74,0.00,,---,0.00,VWS V13.01,2013-07-29 10:23:00,
2013-07-29 05:28:00,50.2,42.2,30.10,NE,53,0.0,0.0,74,0.00,,---,0.00,VWS V13.01,2013-07-29 10:28:00,
2013-07-29 05:33:00,50.0,42.0,30.10,NE,53,0.0,0.0,74,0.00,,---,0.00,VWS V13.01,2013-07-29 10:33:00,
2013-07-29 05:38:00,49.8,41.9,30.10,NE,53,0.0,0.0,74,0.00,,---,0.00,VWS V13.01,2013-07-29 10:38:00,
2013-07-29 05:44:00,50.0,42.0,30.10,NE,53,0.0,0.0,74,0.00,,---,0.00,VWS V13.01,2013-07-29 10:44:00,
2013-07-29 05:49:00,50.2,42.6,30.10,NE,53,0.0,0.0,75,0.00,,---,0.00,VWS V13.01,2013-07-29 10:49:00,
2013-07-29 05:54:00,50.4,42.8,30.10,NE,53,0.0,0.0,75,0.00,,---,0.00,VWS V13.01,2013-07-29 10:54:00,
2013-07-29 05:59:00,50.5,42.9,30.10,NE,53,0.0,0.0,75,0.00,,---,0.00,VWS V13.01,2013-07-29 10:59:00,
2013-07-29 06:04:00,50.5,43.3,30.10,NE,53,0.0,0.0,76,0.00,,---,0.00,VWS V13.01,2013-07-29 11:04:00,
2013-07-29 06:09:00,50.7,43.4,30.10,NE,53,0.0,0.0,76,0.00,,---,0.00,VWS V13.01,2013-07-29 11:09:00,
2013-07-29 06:14:00,50.9,43.6,30.10,NE,53,0.0,0.0,76,0.00,,---,0.00,VWS V13.01,2013-07-29 11:14:00,
2013-07-29 06:19:00,51.8,44.8,30.10,NE,53,0.0,0.0,77,0.00,,---,0.00,VWS V13.01,2013-07-29 11:19:00,
2013-07-29 06:24:00,52.9,46.2,30.10,NW,310,3.1,3.1,78,0.00,,---,0.00,VWS V13.01,2013-07-29 11:24:00,
2013-07-29 06:29:00,53.6,46.2,30.10,NW,310,0.0,0.0,76,0.00,,---,0.00,VWS V13.01,2013-07-29 11:29:00,
2013-07-29 06:34:00,54.3,46.2,30.10,NW,309,0.0,0.0,74,0.00,,---,0.00,VWS V13.01,2013-07-29 11:34:00,
2013-07-29 06:39:00,54.7,45.8,30.10,NW,310,0.0,0.0,72,0.00,,---,0.00,VWS V13.01,2013-07-29 11:39:00,
2013-07-29 06:44:00,54.9,45.3,30.13,NW,309,0.0,0.0,70,0.00,,---,0.00,VWS V13.01,2013-07-29 11:44:00,
2013-07-29 06:49:00,55.0,44.7,30.13,NW,310,0.0,0.0,68,0.00,,---,0.00,VWS V13.01,2013-07-29 11:49:00,
2013-07-29 06:54:00,55.2,44.9,30.13,NW,310,0.0,0.0,68,0.00,,---,0.00,VWS V13.01,2013-07-29 11:54:00,
2013-07-29 07:00:00,55.6,44.8,30.13,NW,310,0.0,0.0,67,0.00,,---,0.00,VWS V13.01,2013-07-29 12:00:00,
2013-07-29 07:05:00,55.8,44.6,30.13,NW,310,0.0,0.0,66,0.00,,---,0.00,VWS V13.01,2013-07-29 12:05:00,
2013-07-29 07:10:00,56.1,44.5,30.13,NW,310,0.0,0.0,65,0.00,,---,0.00,VWS V13.01,2013-07-29 12:10:00,
2013-07-29 07:15:00,56.3,44.7,30.13,NW,309,0.0,0.0,65,0.00,,---,0.00,VWS V13.01,2013-07-29 12:15:00,
2013-07-29 07:20:00,56.7,45.0,30.13,NW,309,0.0,0.0,65,0.00,,---,0.00,VWS V13.01,2013-07-29 12:20:00,
2013-07-29 07:26:00,56.8,44.8,30.13,NW,310,0.0,0.0,64,0.00,,---,0.00,VWS V13.01,2013-07-29 12:26:00,
2013-07-29 07:31:00,56.8,44.8,30.13,NW,309,0.0,0.0,64,0.00,,---,0.00,VWS V13.01,2013-07-29 12:31:00,
2013-07-29 07:37:00,56.8,45.2,30.13,NW,309,0.0,0.0,65,0.00,,---,0.00,VWS V13.01,2013-07-29 12:37:00,
2013-07-29 07:43:00,56.8,45.2,30.13,NW,310,0.0,0.0,65,0.00,,---,0.00,VWS V13.01,2013-07-29 12:43:00,
2013-07-29 07:48:00,57.0,45.4,30.13,NW,309,0.0,0.0,65,0.00,,---,0.00,VWS V13.01,2013-07-29 12:48:00,
2013-07-29 07:53:00,57.2,45.2,30.13,NW,309,0.0,0.0,64,0.00,,---,0.00,VWS V13.01,2013-07-29 12:53:00,
2013-07-29 07:58:00,57.2,45.6,30.13,NW,310,0.0,0.0,65,0.00,,---,0.00,VWS V13.01,2013-07-29 12:58:00,
2013-07-29 08:03:00,57.6,45.9,30.13,NW,310,0.0,0.0,65,0.00,,---,0.00,VWS V13.01,2013-07-29 13:03:00,
2013-07-29 08:08:00,58.1,46.0,30.13,NW,310,0.0,0.0,64,0.00,,---,0.00,VWS V13.01,2013-07-29 13:08:00,
2013-07-29 08:13:00,58.5,45.9,30.13,NW,310,0.0,0.0,63,0.00,,---,0.00,VWS V13.01,2013-07-29 13:13:00,
2013-07-29 08:19:00,59.2,46.2,30.13,NW,310,0.0,0.0,62,0.00,,---,0.00,VWS V13.01,2013-07-29 13:19:00,
2013-07-29 08:24:00,59.9,46.0,30.13,NW,310,0.0,0.0,60,0.00,,---,0.00,VWS V13.01,2013-07-29 13:24:00,
2013-07-29 08:29:00,60.4,46.1,30.13,NW,310,0.0,0.0,59,0.00,,---,0.00,VWS V13.01,2013-07-29 13:29:00,
2013-07-29 08:34:00,60.8,45.5,30.13,NW,310,0.0,0.0,57,0.00,,---,0.00,VWS V13.01,2013-07-29 13:34:00,
2013-07-29 08:39:00,61.2,44.9,30.13,NW,310,0.0,0.0,55,0.00,,---,0.00,VWS V13.01,2013-07-29 13:39:00,
2013-07-29 08:44:00,61.5,44.7,30.13,NW,310,0.0,0.0,54,0.00,,---,0.00,VWS V13.01,2013-07-29 13:44:00,
2013-07-29 08:49:00,61.9,45.5,30.13,NW,310,0.0,0.0,55,0.00,,---,0.00,VWS V13.01,2013-07-29 13:49:00,
2013-07-29 08:54:00,62.2,45.9,30.13,NW,310,0.0,0.0,55,0.00,,---,0.00,VWS V13.01,2013-07-29 13:54:00,
2013-07-29 08:59:00,62.6,45.2,30.13,ENE,59,0.0,0.0,53,0.00,,---,0.00,VWS V13.01,2013-07-29 13:59:00,
2013-07-29 09:04:00,62.8,43.9,30.13,ENE,59,0.0,0.0,50,0.00,,---,0.00,VWS V13.01,2013-07-29 14:04:00,
2013-07-29 09:09:00,63.1,43.7,30.13,ENE,59,0.0,0.0,49,0.00,,---,0.00,VWS V13.01,2013-07-29 14:09:00,
2013-07-29 09:15:00,63.5,43.5,30.13,ENE,59,0.0,0.0,48,0.00,,---,0.00,VWS V13.01,2013-07-29 14:15:00,
2013-07-29 09:20:00,63.7,43.6,30.13,ENE,59,0.0,0.0,48,0.00,,---,0.00,VWS V13.01,2013-07-29 14:20:00,
2013-07-29 09:25:00,63.9,43.8,30.13,ENE,59,0.0,0.0,48,0.00,,---,0.00,VWS V13.01,2013-07-29 14:25:00,
2013-07-29 09:30:00,64.2,43.0,30.13,ENE,59,0.0,0.0,46,0.00,,---,0.00,VWS V13.01,2013-07-29 14:30:00,
2013-07-29 09:35:00,64.6,43.4,30.13,South,177,0.0,0.0,46,0.00,,---,0.00,VWS V13.01,2013-07-29 14:35:00,
2013-07-29 09:40:00,64.9,43.1,30.13,South,177,0.0,0.0,45,0.00,,---,0.00,VWS V13.01,2013-07-29 14:40:00,
2013-07-29 09:45:00,65.3,42.8,30.13,South,177,0.0,0.0,44,0.00,,---,0.00,VWS V13.01,2013-07-29 14:45:00,
2013-07-29 09:50:00,65.7,42.6,30.13,South,177,0.0,0.0,43,0.00,,---,0.00,VWS V13.01,2013-07-29 14:50:00,
2013-07-29 09:56:00,65.8,42.7,30.13,WSW,245,0.0,0.0,43,0.00,,---,0.00,VWS V13.01,2013-07-29 14:56:00,
2013-07-29 10:01:00,66.0,42.3,30.13,NE,50,0.0,0.0,42,0.00,,---,0.00,VWS V13.01,2013-07-29 15:01:00,
2013-07-29 10:06:00,66.4,40.7,30.13,NE,50,0.0,0.0,39,0.00,,---,0.00,VWS V13.01,2013-07-29 15:06:00,
2013-07-29 10:11:00,66.6,40.2,30.13,NE,50,0.0,0.0,38,0.00,,---,0.00,VWS V13.01,2013-07-29 15:11:00,
2013-07-29 10:16:00,66.7,40.3,30.13,West,265,0.0,0.0,38,0.00,,---,0.00,VWS V13.01,2013-07-29 15:16:00,
2013-07-29 10:22:00,67.1,37.8,30.13,West,265,0.0,0.0,34,0.00,,---,0.00,VWS V13.01,2013-07-29 15:22:00,
2013-07-29 10:27:00,67.5,38.1,30.13,West,265,0.0,0.0,34,0.00,,---,0.00,VWS V13.01,2013-07-29 15:27:00,
2013-07-29 10:32:00,67.5,38.9,30.13,West,265,0.0,0.0,35,0.00,,---,0.00,VWS V13.01,2013-07-29 15:32:00,
2013-07-29 10:37:00,67.6,39.0,30.13,West,265,0.0,0.0,35,0.00,,---,0.00,VWS V13.01,2013-07-29 15:37:00,
2013-07-29 10:42:00,67.8,39.2,30.13,West,265,0.0,0.0,35,0.00,,---,0.00,VWS V13.01,2013-07-29 15:42:00,
2013-07-29 10:48:00,68.0,39.3,30.13,West,265,0.0,0.0,35,0.00,,---,0.00,VWS V13.01,2013-07-29 15:48:00,
2013-07-29 10:53:00,68.2,38.8,30.13,West,265,0.0,0.0,34,0.00,,---,0.00,VWS V13.01,2013-07-29 15:53:00,
2013-07-29 10:58:00,68.4,38.9,30.13,West,265,0.0,0.0,34,0.00,,---,0.00,VWS V13.01,2013-07-29 15:58:00,
2013-07-29 11:03:00,68.4,38.9,30.13,West,265,0.0,0.0,34,0.00,,---,0.00,VWS V13.01,2013-07-29 16:03:00,
2013-07-29 11:08:00,68.5,39.1,30.13,West,265,0.0,0.0,34,0.00,,---,0.00,VWS V13.01,2013-07-29 16:08:00,
2013-07-29 11:13:00,68.7,38.5,30.13,West,265,0.0,0.0,33,0.00,,---,0.00,VWS V13.01,2013-07-29 16:13:00,
2013-07-29 11:18:00,68.9,39.4,30.13,West,265,0.0,0.0,34,0.00,,---,0.00,VWS V13.01,2013-07-29 16:18:00,
2013-07-29 11:23:00,68.7,39.2,30.13,West,265,0.0,0.0,34,0.00,,---,0.00,VWS V13.01,2013-07-29 16:23:00,
2013-07-29 11:28:00,68.4,38.9,30.13,West,265,0.0,0.0,34,0.00,,---,0.00,VWS V13.01,2013-07-29 16:28:00,
2013-07-29 11:34:00,67.8,38.5,30.13,SW,221,0.0,0.0,34,0.00,,---,0.00,VWS V13.01,2013-07-29 16:34:00,
2013-07-29 11:39:00,67.8,38.5,30.13,SW,224,0.0,0.0,34,0.00,,---,0.00,VWS V13.01,2013-07-29 16:39:00,
2013-07-29 11:44:00,68.5,39.1,30.13,NE,38,0.0,0.0,34,0.00,,---,0.00,VWS V13.01,2013-07-29 16:44:00,
2013-07-29 11:49:00,69.1,39.6,30.13,West,266,0.0,0.0,34,0.00,,---,0.00,VWS V13.01,2013-07-29 16:49:00,
2013-07-29 11:54:00,69.6,39.3,30.13,West,266,0.0,0.0,33,0.00,,---,0.00,VWS V13.01,2013-07-29 16:54:00,
2013-07-29 11:59:00,69.8,39.4,30.16,West,266,0.0,0.0,33,0.00,,---,0.00,VWS V13.01,2013-07-29 16:59:00,
2013-07-29 12:04:00,70.0,39.6,30.16,West,266,0.0,0.0,33,0.00,,---,0.00,VWS V13.01,2013-07-29 17:04:00,
2013-07-29 12:09:00,69.8,39.4,30.16,West,266,0.0,0.0,33,0.00,,---,0.00,VWS V13.01,2013-07-29 17:09:00,
2013-07-29 12:15:00,69.8,39.4,30.16,SSW,210,0.0,0.0,33,0.00,,---,0.00,VWS V13.01,2013-07-29 17:15:00,
2013-07-29 12:20:00,69.8,39.4,30.16,NW,324,0.0,0.0,33,0.00,,---,0.00,VWS V13.01,2013-07-29 17:20:00,
2013-07-29 12:25:00,69.8,39.4,30.16,NW,324,0.0,0.0,33,0.00,,---,0.00,VWS V13.01,2013-07-29 17:25:00,
2013-07-29 12:30:00,69.8,39.4,30.16,NW,324,0.0,0.0,33,0.00,,---,0.00,VWS V13.01,2013-07-29 17:30:00,
2013-07-29 12:36:00,70.0,39.6,30.16,NW,324,0.0,0.0,33,0.00,,---,0.00,VWS V13.01,2013-07-29 17:36:00,
2013-07-29 12:41:00,70.3,39.1,30.16,SW,229,0.0,0.0,32,0.00,,---,0.00,VWS V13.01,2013-07-29 17:41:00,
2013-07-29 12:46:00,70.5,39.3,30.13,SW,229,0.0,0.0,32,0.00,,---,0.00,VWS V13.01,2013-07-29 17:46:00,
2013-07-29 12:51:00,70.3,39.1,30.13,SW,229,0.0,0.0,32,0.00,,---,0.00,VWS V13.01,2013-07-29 17:51:00,
2013-07-29 12:56:00,70.0,39.6,30.13,SW,229,0.0,0.0,33,0.00,,---,0.00,VWS V13.01,2013-07-29 17:56:00,
2013-07-29 13:01:00,69.8,39.4,30.13,SW,229,0.0,0.0,33,0.00,,---,0.00,VWS V13.01,2013-07-29 18:01:00,
2013-07-29 13:07:00,70.0,39.6,30.13,NNE,28,0.0,0.0,33,0.00,,---,0.00,VWS V13.01,2013-07-29 18:07:00,
2013-07-29 13:12:00,70.2,39.7,30.13,NNE,28,0.0,0.0,33,0.00,,---,0.00,VWS V13.01,2013-07-29 18:12:00,
2013-07-29 13:17:00,70.3,39.9,30.13,NNE,28,0.0,0.0,33,0.00,,---,0.00,VWS V13.01,2013-07-29 18:17:00,
2013-07-29 13:23:00,70.3,39.9,30.13,NNW,333,0.0,0.0,33,0.00,,---,0.00,VWS V13.01,2013-07-29 18:23:00,
2013-07-29 13:28:00,70.3,40.7,30.13,NNW,333,0.0,0.0,34,0.00,,---,0.00,VWS V13.01,2013-07-29 18:28:00,
2013-07-29 13:33:00,70.5,40.1,30.13,NNW,333,0.0,0.0,33,0.00,,---,0.00,VWS V13.01,2013-07-29 18:33:00,
2013-07-29 13:38:00,70.3,39.9,30.13,NNW,333,0.0,0.0,33,0.00,,---,0.00,VWS V13.01,2013-07-29 18:38:00,
2013-07-29 13:43:00,70.2,40.5,30.13,NNW,334,0.0,0.0,34,0.00,,---,0.00,VWS V13.01,2013-07-29 18:43:00,
2013-07-29 13:48:00,70.0,40.3,30.13,NNW,333,0.0,0.0,34,0.00,,---,0.00,VWS V13.01,2013-07-29 18:48:00,
2013-07-29 13:54:00,70.0,40.3,30.13,NNW,333,0.0,0.0,34,0.00,,---,0.00,VWS V13.01,2013-07-29 18:54:00,
2013-07-29 13:59:00,69.8,40.2,30.13,NNW,333,0.0,0.0,34,0.00,,---,0.00,VWS V13.01,2013-07-29 18:59:00,
2013-07-29 14:05:00,69.6,40.8,30.13,NNW,333,0.0,0.0,35,0.00,,---,0.00,VWS V13.01,2013-07-29 19:05:00,
2013-07-29 14:10:00,69.8,40.9,30.13,NNW,334,0.0,0.0,35,0.00,,---,0.00,VWS V13.01,2013-07-29 19:10:00,
2013-07-29 14:15:00,70.2,40.5,30.13,NNW,333,0.0,0.0,34,0.00,,---,0.00,VWS V13.01,2013-07-29 19:15:00,
2013-07-29 14:20:00,70.7,41.0,30.13,NNW,333,0.0,0.0,34,0.00,,---,0.00,VWS V13.01,2013-07-29 19:20:00,
2013-07-29 14:26:00,71.1,41.3,30.13,NNW,333,0.0,0.0,34,0.00,,---,0.00,VWS V13.01,2013-07-29 19:26:00,
2013-07-29 14:31:00,71.1,40.5,30.13,NNW,333,0.0,0.0,33,0.00,,---,0.00,VWS V13.01,2013-07-29 19:31:00,
2013-07-29 14:36:00,70.9,41.1,30.13,NNW,333,0.0,0.0,34,0.00,,---,0.00,VWS V13.01,2013-07-29 19:36:00,
2013-07-29 14:41:00,70.5,40.8,30.13,NNW,333,0.0,0.0,34,0.00,,---,0.00,VWS V13.01,2013-07-29 19:41:00,
2013-07-29 14:46:00,70.3,40.7,30.13,NNW,333,0.0,0.0,34,0.00,,---,0.00,VWS V13.01,2013-07-29 19:46:00,
2013-07-29 14:51:00,70.7,41.7,30.13,NNW,333,0.0,0.0,35,0.00,,---,0.00,VWS V13.01,2013-07-29 19:51:00,
2013-07-29 14:56:00,71.6,41.0,30.13,SSE,168,0.0,0.0,33,0.00,,---,0.00,VWS V13.01,2013-07-29 19:56:00,
2013-07-29 15:02:00,72.1,40.7,30.13,North,4,0.0,0.0,32,0.00,,---,0.00,VWS V13.01,2013-07-29 20:02:00,
2013-07-29 15:07:00,72.0,41.3,30.13,North,4,0.0,0.0,33,0.00,,---,0.00,VWS V13.01,2013-07-29 20:07:00,
2013-07-29 15:12:00,72.7,42.0,30.13,WSW,253,0.0,0.0,33,0.00,,---,0.00,VWS V13.01,2013-07-29 20:12:00,
2013-07-29 15:17:00,73.6,41.9,30.13,SSW,208,0.0,0.0,32,0.00,,---,0.00,VWS V13.01,2013-07-29 20:17:00,
2013-07-29 15:23:00,74.3,42.6,30.13,WNW,283,0.0,0.0,32,0.00,,---,0.00,VWS V13.01,2013-07-29 20:23:00,
2013-07-29 15:28:00,74.5,41.9,30.13,SW,218,0.0,0.0,31,0.00,,---,0.00,VWS V13.01,2013-07-29 20:28:00,
2013-07-29 15:33:00,74.1,41.6,30.13,South,183,0.0,0.0,31,0.00,,---,0.00,VWS V13.01,2013-07-29 20:33:00,
2013-07-29 15:38:00,73.9,41.4,30.13,South,182,0.0,0.0,31,0.00,,---,0.00,VWS V13.01,2013-07-29 20:38:00,
2013-07-29 15:43:00,74.1,41.6,30.13,SW,218,0.0,0.0,31,0.00,,---,0.00,VWS V13.01,2013-07-29 20:43:00,
2013-07-29 15:48:00,74.1,41.6,30.13,SW,218,0.0,0.0,31,0.00,,---,0.00,VWS V13.01,2013-07-29 20:48:00,
2013-07-29 15:53:00,73.9,41.4,30.13,SW,218,0.0,0.0,31,0.00,,---,0.00,VWS V13.01,2013-07-29 20:53:00,
2013-07-29 15:58:00,73.9,41.4,30.13,SW,218,0.0,0.0,31,0.00,,---,0.00,VWS V13.01,2013-07-29 20:58:00,
2013-07-29 16:04:00,73.9,41.4,30.13,SW,236,0.0,0.0,31,0.00,,---,0.00,VWS V13.01,2013-07-29 21:04:00,
2013-07-29 16:09:00,73.8,41.3,30.13,WNW,285,0.0,0.0,31,0.00,,---,0.00,VWS V13.01,2013-07-29 21:09:00,
2013-07-29 16:14:00,73.6,41.1,30.13,WNW,285,0.0,0.0,31,0.00,,---,0.00,VWS V13.01,2013-07-29 21:14:00,
2013-07-29 16:19:00,73.8,42.1,30.13,ENE,61,0.0,0.0,32,0.00,,---,0.00,VWS V13.01,2013-07-29 21:19:00,
2013-07-29 16:24:00,73.8,41.3,30.13,East,100,0.0,0.0,31,0.00,,---,0.00,VWS V13.01,2013-07-29 21:24:00,
2013-07-29 16:30:00,73.6,41.9,30.13,SSW,210,0.0,0.0,32,0.00,,---,0.00,VWS V13.01,2013-07-29 21:30:00,
2013-07-29 16:34:00,73.4,41.0,30.13,SSW,210,0.0,0.0,31,0.00,,---,0.00,VWS V13.01,2013-07-29 21:34:00,
2013-07-29 16:40:00,73.2,41.6,30.13,ENE,70,0.0,0.0,32,0.00,,---,0.00,VWS V13.01,2013-07-29 21:40:00,
2013-07-29 16:45:00,73.2,41.6,30.13,ESE,102,0.0,0.0,32,0.00,,---,0.00,VWS V13.01,2013-07-29 21:45:00,
2013-07-29 16:50:00,72.9,41.3,30.13,ESE,103,0.0,0.0,32,0.00,,---,0.00,VWS V13.01,2013-07-29 21:50:00,
2013-07-29 16:55:00,72.7,41.2,30.13,ESE,103,0.0,0.0,32,0.00,,---,0.00,VWS V13.01,2013-07-29 21:55:00,
2013-07-29 17:00:00,72.7,42.0,30.13,ESE,102,0.0,0.0,33,0.00,,---,0.00,VWS V13.01,2013-07-29 22:00:00,
2013-07-29 17:06:00,72.5,41.0,30.13,ESE,103,0.0,0.0,32,0.00,,---,0.00,VWS V13.01,2013-07-29 22:06:00,
2013-07-29 17:11:00,72.5,41.0,30.13,ESE,103,0.0,0.0,32,0.00,,---,0.00,VWS V13.01,2013-07-29 22:11:00,
2013-07-29 17:17:00,72.0,40.5,30.13,ESE,103,0.0,0.0,32,0.00,,---,0.00,VWS V13.01,2013-07-29 22:17:00,
2013-07-29 17:22:00,70.9,40.4,30.13,ESE,103,0.0,0.0,33,0.00,,---,0.00,VWS V13.01,2013-07-29 22:22:00,
2013-07-29 17:27:00,70.2,40.5,30.10,West,261,0.0,0.0,34,0.00,,---,0.00,VWS V13.01,2013-07-29 22:27:00,
2013-07-29 17:32:00,69.6,40.8,30.10,West,261,0.0,0.0,35,0.00,,---,0.00,VWS V13.01,2013-07-29 22:32:00,
2013-07-29 17:37:00,68.9,40.2,30.10,West,261,0.0,0.0,35,0.00,,---,0.00,VWS V13.01,2013-07-29 22:37:00,
2013-07-29 17:42:00,68.5,40.5,30.10,West,261,0.0,0.0,36,0.00,,---,0.00,VWS V13.01,2013-07-29 22:42:00,
2013-07-29 17:47:00,68.2,40.9,30.13,West,261,0.0,0.0,37,0.00,,---,0.00,VWS V13.01,2013-07-29 22:47:00,
2013-07-29 17:53:00,68.0,40.1,30.13,West,261,0.0,0.0,36,0.00,,---,0.00,VWS V13.01,2013-07-29 22:53:00,
2013-07-29 17:58:00,67.6,40.5,30.13,West,261,0.0,0.0,37,0.00,,---,0.00,VWS V13.01,2013-07-29 22:58:00,
2013-07-29 18:03:00,67.5,39.6,30.13,West,261,0.0,0.0,36,0.00,,---,0.00,VWS V13.01,2013-07-29 23:03:00,
2013-07-29 18:08:00,67.3,39.4,30.13,West,261,0.0,0.0,36,0.00,,---,0.00,VWS V13.01,2013-07-29 23:08:00,
2013-07-29 18:13:00,66.9,38.4,30.13,West,261,0.0,0.0,35,0.00,,---,0.00,VWS V13.01,2013-07-29 23:13:00,
2013-07-29 18:18:00,66.7,38.2,30.13,West,261,0.0,0.0,35,0.00,,---,0.00,VWS V13.01,2013-07-29 23:18:00,
2013-07-29 18:23:00,66.6,38.1,30.13,West,261,0.0,0.0,35,0.00,,---,0.00,VWS V13.01,2013-07-29 23:23:00,
2013-07-29 18:28:00,66.4,37.9,30.13,West,261,0.0,0.0,35,0.00,,---,0.00,VWS V13.01,2013-07-29 23:28:00,
2013-07-29 18:33:00,66.4,37.9,30.13,West,261,0.0,0.0,35,0.00,,---,0.00,VWS V13.01,2013-07-29 23:33:00,
2013-07-29 18:38:00,66.2,37.8,30.13,West,261,0.0,0.0,35,0.00,,---,0.00,VWS V13.01,2013-07-29 23:38:00,
2013-07-29 18:43:00,66.2,37.8,30.13,West,261,0.0,0.0,35,0.00,,---,0.00,VWS V13.01,2013-07-29 23:43:00,
2013-07-29 18:48:00,66.0,38.3,30.13,West,261,0.0,0.0,36,0.00,,---,0.00,VWS V13.01,2013-07-29 23:48:00,
2013-07-29 18:53:00,65.8,38.2,30.13,West,261,0.0,0.0,36,0.00,,---,0.00,VWS V13.01,2013-07-29 23:53:00,
2013-07-29 18:58:00,65.7,38.0,30.13,West,261,0.0,0.0,36,0.00,,---,0.00,VWS V13.01,2013-07-29 23:58:00,
2013-07-29 19:03:00,65.7,38.0,30.13,West,261,0.0,0.0,36,0.00,,---,0.00,VWS V13.01,2013-07-30 00:03:00,
2013-07-29 19:08:00,65.5,38.5,30.13,West,261,0.0,0.0,37,0.00,,---,0.00,VWS V13.01,2013-07-30 00:08:00,
2013-07-29 19:14:00,65.1,38.2,30.13,West,261,0.0,0.0,37,0.00,,---,0.00,VWS V13.01,2013-07-30 00:14:00,
2013-07-29 19:19:00,64.8,39.2,30.13,West,261,0.0,0.0,39,0.00,,---,0.00,VWS V13.01,2013-07-30 00:19:00,
2013-07-29 19:24:00,64.6,40.4,30.13,West,261,0.0,0.0,41,0.00,,---,0.00,VWS V13.01,2013-07-30 00:24:00,
2013-07-29 19:29:00,64.2,40.7,30.13,West,261,0.0,0.0,42,0.00,,---,0.00,VWS V13.01,2013-07-30 00:29:00,
2013-07-29 19:34:00,64.0,40.5,30.13,West,261,0.0,0.0,42,0.00,,---,0.00,VWS V13.01,2013-07-30 00:34:00,
2013-07-29 19:39:00,63.9,41.0,30.13,West,261,0.0,0.0,43,0.00,,---,0.00,VWS V13.01,2013-07-30 00:39:00,
2013-07-29 19:45:00,63.5,41.2,30.13,West,261,0.0,0.0,44,0.00,,---,0.00,VWS V13.01,2013-07-30 00:45:00,
2013-07-29 19:50:00,63.3,41.6,30.13,West,261,0.0,0.0,45,0.00,,---,0.00,VWS V13.01,2013-07-30 00:50:00,
2013-07-29 19:55:00,63.3,41.1,30.13,West,261,0.0,0.0,44,0.00,,---,0.00,VWS V13.01,2013-07-30 00:55:00,
2013-07-29 20:00:00,63.1,40.9,30.13,West,261,0.0,0.0,44,0.00,,---,0.00,VWS V13.01,2013-07-30 01:00:00,
2013-07-29 20:05:00,63.1,41.5,30.13,West,261,0.0,0.0,45,0.00,,---,0.00,VWS V13.01,2013-07-30 01:05:00,
2013-07-29 20:10:00,63.1,40.9,30.13,West,261,0.0,0.0,44,0.00,,---,0.00,VWS V13.01,2013-07-30 01:10:00,
2013-07-29 20:15:00,63.1,42.0,30.13,West,261,0.0,0.0,46,0.00,,---,0.00,VWS V13.01,2013-07-30 01:15:00,
2013-07-29 20:20:00,63.0,42.4,30.13,West,261,0.0,0.0,47,0.00,,---,0.00,VWS V13.01,2013-07-30 01:20:00,
2013-07-29 20:26:00,62.8,41.2,30.13,West,261,0.0,0.0,45,0.00,,---,0.00,VWS V13.01,2013-07-30 01:26:00,
2013-07-29 20:31:00,62.6,41.0,30.13,West,261,0.0,0.0,45,0.00,,---,0.00,VWS V13.01,2013-07-30 01:31:00,
2013-07-29 20:36:00,62.4,41.4,30.13,West,261,0.0,0.0,46,0.00,,---,0.00,VWS V13.01,2013-07-30 01:36:00,
2013-07-29 20:42:00,62.1,41.1,30.13,West,261,0.0,0.0,46,0.00,,---,0.00,VWS V13.01,2013-07-30 01:42:00,
2013-07-29 20:47:00,61.9,41.5,30.13,West,261,0.0,0.0,47,0.00,,---,0.00,VWS V13.01,2013-07-30 01:47:00,
2013-07-29 20:52:00,61.7,41.3,30.13,West,261,0.0,0.0,47,0.00,,---,0.00,VWS V13.01,2013-07-30 01:52:00,
2013-07-29 20:57:00,61.3,41.0,30.13,West,261,0.0,0.0,47,0.00,,---,0.00,VWS V13.01,2013-07-30 01:57:00,
2013-07-29 21:03:00,61.2,41.3,30.13,West,261,0.0,0.0,48,0.00,,---,0.00,VWS V13.01,2013-07-30 02:03:00,
2013-07-29 21:08:00,61.0,41.2,30.13,West,261,0.0,0.0,48,0.00,,---,0.00,VWS V13.01,2013-07-30 02:08:00,
2013-07-29 21:13:00,60.6,41.9,30.13,West,261,0.0,0.0,50,0.00,,---,0.00,VWS V13.01,2013-07-30 02:13:00,
2013-07-29 21:18:00,60.3,42.1,30.13,West,261,0.0,0.0,51,0.00,,---,0.00,VWS V13.01,2013-07-30 02:18:00,
2013-07-29 21:23:00,59.9,41.8,30.13,West,261,0.0,0.0,51,0.00,,---,0.00,VWS V13.01,2013-07-30 02:23:00,
2013-07-29 21:28:00,59.7,42.1,30.13,West,261,0.0,0.0,52,0.00,,---,0.00,VWS V13.01,2013-07-30 02:28:00,
2013-07-29 21:33:00,59.2,42.1,30.13,West,261,0.0,0.0,53,0.00,,---,0.00,VWS V13.01,2013-07-30 02:33:00,
2013-07-29 21:38:00,58.8,42.2,30.13,West,261,0.0,0.0,54,0.00,,---,0.00,VWS V13.01,2013-07-30 02:38:00,
2013-07-29 21:43:00,58.6,42.5,30.13,West,261,0.0,0.0,55,0.00,,---,0.00,VWS V13.01,2013-07-30 02:43:00,
2013-07-29 21:48:00,58.5,42.8,30.13,West,261,0.0,0.0,56,0.00,,---,0.00,VWS V13.01,2013-07-30 02:48:00,
2013-07-29 21:54:00,58.1,42.5,30.13,West,261,0.0,0.0,56,0.00,,---,0.00,VWS V13.01,2013-07-30 02:54:00,
2013-07-29 21:59:00,57.7,42.2,30.13,West,261,0.0,0.0,56,0.00,,---,0.00,VWS V13.01,2013-07-30 02:59:00,
2013-07-29 22:05:00,57.6,42.5,30.13,West,261,0.0,0.0,57,0.00,,---,0.00,VWS V13.01,2013-07-30 03:05:00,
2013-07-29 22:10:00,57.2,42.6,30.13,West,261,0.0,0.0,58,0.00,,---,0.00,VWS V13.01,2013-07-30 03:10:00,
2013-07-29 22:15:00,57.0,42.8,30.13,West,261,0.0,0.0,59,0.00,,---,0.00,VWS V13.01,2013-07-30 03:15:00,
2013-07-29 22:20:00,57.0,42.8,30.13,West,261,0.0,0.0,59,0.00,,---,0.00,VWS V13.01,2013-07-30 03:20:00,
2013-07-29 22:25:00,56.8,43.1,30.13,West,261,0.0,0.0,60,0.00,,---,0.00,VWS V13.01,2013-07-30 03:25:00,
2013-07-29 22:30:00,56.8,43.5,30.13,West,261,0.0,0.0,61,0.00,,---,0.00,VWS V13.01,2013-07-30 03:30:00,
2013-07-29 22:35:00,56.8,43.1,30.13,West,261,0.0,0.0,60,0.00,,---,0.00,VWS V13.01,2013-07-30 03:35:00,
2013-07-29 22:40:00,56.8,42.2,30.13,West,261,0.0,0.0,58,0.00,,---,0.00,VWS V13.01,2013-07-30 03:40:00,
2013-07-29 22:45:00,57.0,41.5,30.13,West,261,0.0,0.0,56,0.00,,---,0.00,VWS V13.01,2013-07-30 03:45:00,
2013-07-29 22:50:00,57.0,42.0,30.13,West,261,0.0,0.0,57,0.00,,---,0.00,VWS V13.01,2013-07-30 03:50:00,
2013-07-29 22:55:00,56.8,42.2,30.13,West,261,0.0,0.0,58,0.00,,---,0.00,VWS V13.01,2013-07-30 03:55:00,
2013-07-29 23:01:00,56.7,42.1,30.13,West,261,0.0,0.0,58,0.00,,---,0.00,VWS V13.01,2013-07-30 04:01:00,
2013-07-29 23:02:00,56.5,41.9,30.13,West,261,0.0,0.0,58,0.00,,---,0.00,VWS V13.01,2013-07-30 04:02:00,
2013-07-29 23:07:00,56.1,42.0,30.13,West,261,0.0,0.0,59,0.00,,---,0.00,VWS V13.01,2013-07-30 04:07:00,
2013-07-29 23:12:00,55.9,41.8,30.13,West,261,0.0,0.0,59,0.00,,---,0.00,VWS V13.01,2013-07-30 04:12:00,
2013-07-29 23:17:00,55.6,42.4,30.13,West,261,0.0,0.0,61,0.00,,---,0.00,VWS V13.01,2013-07-30 04:17:00,
2013-07-29 23:22:00,55.4,43.0,30.13,West,261,0.0,0.0,63,0.00,,---,0.00,VWS V13.01,2013-07-30 04:22:00,
2013-07-29 23:27:00,55.4,43.0,30.13,West,261,0.0,0.0,63,0.00,,---,0.00,VWS V13.01,2013-07-30 04:27:00,
2013-07-29 23:33:00,55.6,43.6,30.13,West,261,0.0,0.0,64,0.00,,---,0.00,VWS V13.01,2013-07-30 04:33:00,
2013-07-29 23:38:00,55.6,43.2,30.13,West,261,0.0,0.0,63,0.00,,---,0.00,VWS V13.01,2013-07-30 04:38:00,
2013-07-29 23:43:00,55.4,43.4,30.13,West,261,0.0,0.0,64,0.00,,---,0.00,VWS V13.01,2013-07-30 04:43:00,
2013-07-29 23:48:00,55.4,43.4,30.13,West,261,0.0,0.0,64,0.00,,---,0.00,VWS V13.01,2013-07-30 04:48:00,
2013-07-29 23:53:00,55.4,43.0,30.13,West,261,0.0,0.0,63,0.00,,---,0.00,VWS V13.01,2013-07-30 04:53:00,
2013-07-29 23:58:00,55.4,43.0,30.13,West,261,0.0,0.0,63,0.00,,---,0.00,VWS V13.01,2013-07-30 04:58:00,